Date,TemperatureHighF,TemperatureAvgF,TemperatureLowF,DewpointHighF,DewpointAvgF,DewpointLowF,HumidityHigh,HumidityAvg,HumidityLow,PressureMaxIn,PressureMinIn,WindSpeedMaxMPH,WindSpeedAvgMPH,GustSpeedMaxMPH,PrecipitationSumIn
2013-1-9,47.9,43.0,34.6,35.9,30.2,23.7,78,61,45,30.26,29.95,6,3,14,0.00
2013-1-10,42.4,37.1,30.4,30.7,28.6,26.9,90,72,58,30.53,30.26,6,2,9,0.00
2013-1-11,42.1,36.7,29.6,35.3,29.5,26.6,91,76,63,30.43,29.97,4,2,11,0.10
2013-1-14,44.8,36.1,31.6,36.3,26.7,23.0,79,69,62,30.31,30.15,4,2,11,0.01
2013-1-15,32.2,30.3,27.5,24.8,23.4,22.2,82,75,69,30.34,30.25,2,0,11,0.00
2013-1-16,34.3,30.8,28.7,31.1,28.0,23.0,96,89,72,30.09,29.76,2,1,6,0.00
2013-1-17,35.1,27.9,20.6,30.4,22.6,15.5,91,81,71,30.12,29.84,5,1,11,0.00
2013-1-18,28.6,21.2,13.1,16.8,12.0,5.5,92,69,42,30.38,30.08,5,1,13,0.00
2013-1-19,50.3,39.8,28.7,29.1,21.5,14.0,58,48,39,30.11,29.64,4,1,9,0.04
2013-1-20,47.9,33.8,20.9,33.9,20.2,11.1,89,58,44,30.01,29.46,8,3,20,0.00
2013-1-21,25.7,20.7,13.1,21.4,13.8,6.9,94,75,56,30.02,29.80,3,1,17,0.00
2013-1-22,16.7,10.2,4.7,10.3,-0.8,-6.5,83,61,40,30.15,29.84,6,2,15,0.00
2013-1-23,16.2,7.4,2.1,6.9,0.3,-6.1,84,73,49,30.19,30.11,6,2,12,0.00
2013-1-24,16.0,8.9,1.0,9.8,3.3,-2.2,91,78,63,30.48,30.09,4,2,8,0.00
2013-1-25,18.9,13.5,5.6,12.3,7.9,2.6,91,78,62,30.44,30.03,4,1,6,0.00
2013-1-26,23.1,14.2,6.7,14.4,9.7,3.8,92,82,64,30.36,30.05,2,1,5,0.00
2013-1-27,28.5,19.4,6.7,18.9,14.6,4.1,93,82,63,30.52,30.36,3,1,4,0.00
2013-1-28,37.6,30.7,19.6,36.8,27.2,14.7,98,87,66,30.39,29.87,3,1,11,0.03
2013-1-29,49.6,41.7,35.4,48.4,40.9,35.0,99,97,91,30.02,29.81,3,1,11,0.27
2013-1-30,62.0,55.0,48.6,55.8,51.9,46.8,97,89,80,29.81,29.05,6,3,15,0.44
2013-1-31,54.6,35.1,24.9,53.0,26.9,12.8,96,72,55,29.65,28.94,8,4,25,0.30
2013-2-1,26.2,21.6,18.6,20.7,13.6,9.5,92,71,56,30.16,29.65,5,2,25,0.00
2013-2-2,23.3,18.7,13.6,16.2,10.5,5.8,85,70,55,30.17,29.95,5,2,14,0.00
2013-2-3,28.3,20.5,13.0,21.9,16.3,10.9,93,84,61,29.95,29.72,4,1,14,0.00
2013-2-4,25.2,20.2,15.5,16.4,12.8,9.5,88,74,54,29.92,29.81,4,1,12,0.00
2013-2-5,31.2,23.8,19.1,22.1,18.0,15.7,91,79,59,29.92,29.80,3,0,7,0.04
2013-2-6,31.3,24.8,10.5,25.2,17.5,6.8,91,74,60,30.34,29.84,6,2,10,0.00
2013-2-7,34.4,23.6,8.9,20.1,14.1,5.8,89,68,51,30.43,30.11,5,2,10,0.00
2013-2-8,36.2,32.3,21.7,31.6,27.9,18.9,97,84,61,30.11,29.72,6,2,13,0.01
2013-2-9,22.4,19.2,10.1,20.9,15.9,7.2,94,87,79,30.39,29.88,1,0,11,0.00
2013-2-10,37.5,22.7,3.1,19.6,12.7,0.2,93,68,46,30.42,30.04,5,1,8,0.03
2013-2-11,45.1,38.2,34.3,37.8,30.6,17.7,92,75,50,30.04,29.56,5,2,12,0.22
2013-2-12,37.9,35.2,32.3,29.0,26.0,23.4,75,69,63,29.93,29.67,5,2,13,0.00
2013-2-13,40.6,33.3,29.3,26.7,24.8,23.4,82,71,53,29.88,29.65,4,1,13,0.00
2013-2-14,43.5,34.4,26.5,33.1,27.1,21.8,90,76,49,29.90,29.72,5,1,8,0.00
2013-2-15,43.5,36.7,30.2,32.4,27.0,21.3,89,69,45,29.98,29.76,6,1,8,0.00
2013-2-16,30.2,25.3,19.6,23.8,17.1,13.3,85,71,60,29.99,29.86,3,1,8,0.00
2013-2-17,21.3,17.3,12.6,15.0,9.5,4.2,88,71,56,30.09,29.82,6,3,13,0.00
2013-2-18,31.8,21.9,13.0,15.4,10.4,5.5,79,62,43,30.25,29.98,5,2,9,0.00
2013-2-19,39.7,34.1,28.0,35.1,25.5,14.9,95,72,50,29.98,29.55,4,2,13,0.05
2013-2-20,28.0,23.8,20.6,19.5,14.1,11.7,89,66,57,30.00,29.72,7,3,17,0.00
2013-2-21,21.7,19.9,17.0,18.6,14.4,11.5,89,79,70,30.37,29.96,5,3,17,0.00
2013-2-22,36.4,29.2,21.3,26.7,21.6,17.6,87,74,57,30.36,30.03,6,2,14,0.01
2013-2-23,38.9,36.0,32.4,36.5,32.0,25.3,97,85,71,30.05,29.80,4,1,13,0.02
2013-2-24,34.5,32.1,31.0,30.0,26.8,24.0,92,81,68,29.98,29.79,3,1,11,0.01
2013-2-25,39.1,33.4,25.2,30.7,27.5,22.9,92,79,64,30.19,29.98,2,1,9,0.00
2013-2-26,44.0,33.7,23.5,32.6,27.2,21.3,95,79,54,30.19,29.81,6,3,11,0.12
2013-2-27,36.3,34.4,32.5,35.5,33.6,31.3,99,97,95,29.83,29.50,1,0,2,0.80
2013-2-28,39.7,35.3,33.0,36.3,34.0,32.1,99,95,83,29.62,29.50,3,0,5,0.27
2013-3-1,33.6,31.2,27.3,32.6,28.7,23.1,96,90,82,29.85,29.62,4,2,11,0.02
2013-3-2,27.9,26.0,24.0,25.9,22.8,20.7,93,88,77,29.85,29.78,3,2,10,0.00
2013-3-3,28.1,24.7,22.5,22.9,20.3,18.5,92,83,71,29.83,29.76,4,2,10,0.00
2013-3-4,32.6,27.4,22.8,23.9,20.2,17.9,85,74,60,29.96,29.81,5,3,12,0.00
2013-3-5,35.2,28.3,20.9,25.7,22.4,18.4,92,79,66,30.05,29.92,3,2,9,0.02
2013-3-6,42.3,33.7,20.4,34.0,27.3,18.0,95,78,63,30.06,29.90,4,1,8,0.01
2013-3-7,40.6,35.8,30.8,30.0,25.9,24.0,79,67,57,30.18,30.05,3,1,7,0.00
2013-3-8,38.8,32.4,26.4,28.8,26.0,22.2,94,78,60,30.33,30.15,5,3,15,0.03
2013-3-9,46.6,32.1,22.0,32.1,25.9,20.3,95,79,45,30.37,30.22,3,1,15,0.00
2013-3-10,59.2,46.6,28.8,29.1,26.0,22.4,85,48,27,30.22,30.01,5,2,13,0.00
2013-3-11,56.3,51.2,46.8,45.4,31.9,24.8,73,48,37,30.03,29.69,6,3,12,0.00
2013-3-12,55.0,44.0,36.0,49.6,40.7,31.6,96,89,73,29.85,29.65,6,1,14,0.40
2013-3-13,42.3,35.2,26.9,32.4,26.3,15.6,90,71,51,29.88,29.75,5,2,10,0.01
2013-3-14,34.8,27.2,20.3,19.3,13.4,7.5,80,58,33,29.98,29.86,7,4,13,0.00
2013-3-15,37.0,31.0,20.5,30.3,22.7,14.4,86,71,60,29.99,29.68,4,2,11,0.00
2013-3-16,32.7,28.4,21.2,25.6,20.2,16.6,82,71,61,29.93,29.75,3,1,8,0.00
2013-3-17,32.4,24.8,16.6,24.1,18.6,14.4,93,78,57,30.29,29.92,4,1,10,0.00
2013-3-18,35.1,25.5,16.4,27.6,18.6,11.6,94,77,38,30.31,29.80,6,3,11,0.00
2013-3-19,46.5,33.8,26.1,35.4,29.2,21.9,95,84,51,29.80,29.61,6,2,10,0.10
2013-3-20,37.7,28.9,22.6,25.4,20.5,14.9,93,72,46,29.80,29.73,5,1,8,0.07
2013-3-21,33.4,26.7,18.0,22.4,16.4,10.6,86,66,41,29.79,29.67,5,1,8,0.00
2013-3-22,35.4,30.0,25.2,27.0,23.7,20.9,88,77,68,29.85,29.67,5,2,9,0.00
2013-3-23,39.3,33.9,29.4,28.0,24.8,22.6,88,70,51,29.93,29.83,5,2,11,0.00
2013-3-24,41.0,34.5,28.0,28.7,24.5,22.5,86,68,50,29.93,29.67,4,1,11,0.00
2013-3-25,43.6,35.7,29.4,31.6,27.3,24.1,86,72,49,29.67,29.49,4,1,8,0.00
2013-3-26,47.9,37.8,29.9,33.3,28.8,23.6,87,71,50,29.87,29.62,4,1,8,0.00
2013-3-27,48.9,37.4,29.7,35.1,30.2,25.7,95,77,41,29.99,29.84,5,1,11,0.05
2013-3-28,44.5,38.2,32.7,38.4,32.8,30.6,97,82,60,30.14,29.96,4,1,7,0.05
2013-3-29,48.2,40.0,32.7,36.7,32.9,29.5,88,76,58,30.14,30.06,3,1,7,0.00
2013-3-30,53.4,38.4,25.6,31.6,26.9,23.0,95,68,31,30.15,30.03,4,2,9,0.00
2013-3-31,55.4,41.2,29.3,43.2,33.3,23.8,98,76,41,30.03,29.61,7,1,13,0.35
2013-4-1,43.7,37.6,26.8,42.3,30.7,15.5,99,79,39,29.90,29.53,7,2,14,0.05
2013-4-2,37.6,30.5,23.9,22.4,17.1,13.3,81,59,37,30.06,29.88,7,3,15,0.00
2013-4-3,37.4,31.5,27.0,21.4,18.5,15.2,79,59,41,30.32,30.04,5,3,13,0.00
2013-4-4,57.4,38.5,22.1,24.6,20.2,17.2,85,52,24,30.32,29.90,5,2,13,0.00
2013-4-5,48.9,38.6,29.3,30.6,23.5,16.8,68,55,42,30.06,29.83,5,2,9,0.00
2013-4-6,48.7,37.2,27.4,24.1,17.8,10.2,79,49,22,30.28,30.06,4,2,7,0.00
2013-4-7,69.1,54.1,44.2,44.7,30.6,17.7,75,42,31,30.07,29.72,7,3,17,0.00
2013-4-8,65.2,51.7,40.4,47.3,38.0,34.2,82,61,41,30.06,29.75,4,1,17,0.00
2013-4-9,64.9,56.7,46.9,50.2,45.3,42.3,97,67,45,30.04,29.74,5,2,13,0.21
2013-4-10,49.5,46.7,41.2,48.8,46.2,40.7,99,98,96,29.94,29.75,4,1,13,0.62
2013-4-11,41.2,38.5,36.6,40.6,36.5,32.7,98,93,81,30.04,29.87,4,1,7,0.11
2013-4-12,49.2,43.1,38.2,45.9,41.0,37.0,98,92,85,29.90,29.56,6,2,12,0.35
2013-4-13,49.8,42.7,36.8,39.6,36.9,31.7,98,82,54,29.90,29.73,6,1,12,0.03
2013-4-14,49.0,40.9,33.4,37.4,31.8,28.6,94,71,47,30.15,29.89,4,1,9,0.00
2013-4-15,70.9,52.5,32.7,47.2,39.1,29.8,89,63,39,30.16,30.04,6,2,14,0.00
2013-4-16,66.6,57.2,47.6,57.7,50.4,42.7,97,79,62,30.14,29.93,6,2,10,0.25
2013-4-17,57.6,47.6,38.5,41.4,35.8,32.3,85,65,42,30.27,30.14,4,2,9,0.00
2013-4-18,68.4,56.3,38.2,54.3,42.9,33.7,86,63,41,30.19,29.84,8,4,17,0.00
2013-4-19,75.7,62.5,42.9,61.4,53.8,39.3,95,74,59,29.71,29.34,8,3,21,0.67
2013-4-20,48.7,42.2,31.8,39.8,30.0,20.9,91,64,40,30.34,29.68,6,2,21,0.67
2013-4-21,47.1,37.8,30.5,28.3,25.5,21.5,84,63,43,30.60,30.34,4,2,8,0.00
2013-4-22,60.1,44.9,29.4,32.2,26.4,23.4,87,53,25,30.57,30.33,6,2,12,0.00
2013-4-23,62.0,48.8,34.7,40.9,32.1,24.3,76,54,34,30.35,29.97,6,2,12,0.00
2013-4-24,70.4,54.5,42.9,56.4,46.1,35.4,92,74,49,29.98,29.59,7,2,11,0.18
2013-4-25,58.2,46.9,35.4,37.2,32.0,25.0,85,59,29,30.24,29.92,4,2,11,0.18
2013-4-26,56.5,46.1,34.4,41.1,35.1,29.8,98,69,36,30.41,30.24,4,2,8,0.07
2013-4-27,68.3,50.6,33.3,40.2,34.1,27.2,91,59,24,30.39,30.19,4,2,6,0.00
2013-4-28,73.1,57.8,41.7,48.2,38.6,33.0,92,53,24,30.19,29.99,6,3,11,0.14
2013-4-29,58.7,54.7,50.2,51.5,47.7,40.5,93,78,64,30.05,29.97,5,2,12,0.16
2013-4-30,67.5,59.1,52.8,54.5,51.4,48.4,88,76,59,30.18,30.04,4,2,11,0.00
2013-5-1,78.1,62.3,47.0,48.6,37.2,25.7,87,46,18,30.32,30.18,6,2,11,0.00
2013-5-2,80.0,63.3,46.7,46.8,40.1,33.8,70,45,23,30.37,30.19,5,2,8,0.00
2013-5-3,76.2,63.4,51.6,46.1,42.4,33.9,77,49,29,30.28,30.15,6,2,10,0.00
2013-5-4,77.1,60.4,43.4,46.2,40.2,34.8,78,50,25,30.24,30.07,4,2,8,0.00
2013-5-5,78.9,63.0,48.8,49.0,40.0,31.1,78,47,20,30.16,30.00,5,2,8,0.00
2013-5-6,78.4,61.2,44.0,48.7,39.7,32.8,79,49,22,30.12,29.95,5,2,8,0.00
2013-5-7,80.2,65.4,49.1,56.1,49.5,43.6,94,61,29,30.06,29.92,3,1,8,0.00
2013-5-8,69.4,61.1,53.9,61.1,55.8,49.7,98,83,64,29.99,29.85,3,1,5,0.22
2013-5-9,70.8,59.4,50.7,58.2,53.7,50.2,99,83,54,29.89,29.81,4,1,6,0.23
2013-5-10,74.4,62.3,49.4,60.7,54.7,48.9,99,79,51,29.91,29.69,5,1,11,0.35
2013-5-11,65.1,60.1,53.3,61.3,55.4,48.6,98,85,65,29.69,29.61,3,1,6,0.40
2013-5-12,57.6,49.9,40.6,48.5,35.8,26.3,96,61,33,29.87,29.63,5,2,12,0.00
2013-5-13,51.6,43.4,36.7,34.6,30.0,27.2,80,60,42,30.07,29.87,5,2,11,0.00
2013-5-14,58.0,45.0,30.9,36.5,32.2,28.6,92,64,34,30.11,29.94,4,2,8,0.00
2013-5-15,83.2,59.5,40.1,57.8,44.9,33.6,84,61,31,29.95,29.47,7,2,14,0.02
2013-5-16,79.8,65.4,51.4,51.9,44.1,37.1,87,51,22,29.89,29.66,5,2,10,0.02
2013-5-17,65.2,54.8,42.0,45.6,41.6,36.2,92,63,40,30.16,29.89,4,2,9,0.00
2013-5-18,72.0,55.7,40.8,51.8,45.8,38.5,93,71,46,30.21,30.10,4,1,7,0.00
2013-5-19,71.3,62.6,56.4,60.8,56.3,51.4,87,80,66,30.13,30.00,5,2,12,0.00
2013-5-20,85.2,72.2,61.1,65.6,61.5,57.6,89,71,47,30.02,29.80,4,1,8,0.00
2013-5-21,90.8,75.4,63.5,71.3,65.6,60.1,97,74,40,29.85,29.64,4,1,6,0.59
2013-5-22,88.8,73.7,63.5,71.2,66.2,60.2,99,80,43,29.76,29.60,4,1,8,0.05
2013-5-23,79.8,67.9,53.0,66.4,62.0,51.6,98,82,59,29.71,29.61,5,1,9,0.46
2013-5-24,53.4,51.3,50.1,51.1,50.1,48.9,96,96,95,29.74,29.70,4,3,9,0.46
2013-5-29,86.8,76.9,65.2,71.7,67.8,64.6,99,76,52,29.96,29.84,3,1,10,0.07
2013-5-30,89.0,75.2,62.8,72.3,66.7,62.5,100,78,45,30.04,29.95,3,1,10,0.08
2013-5-31,92.9,77.8,63.4,72.0,65.7,60.5,97,70,35,30.02,29.84,2,1,6,0.00
2013-6-1,90.8,77.7,63.9,70.0,66.3,62.1,95,70,45,29.88,29.72,3,1,8,0.00
2013-6-2,84.1,73.2,62.8,70.2,65.0,57.0,94,77,45,29.76,29.63,5,1,7,0.02
2013-6-3,67.5,58.7,50.9,57.9,50.1,44.6,87,74,46,29.93,29.76,3,1,6,0.02
2013-6-4,69.3,57.1,45.9,47.5,43.0,35.6,93,63,30,30.10,29.94,4,2,11,0.00
2013-6-5,73.1,57.9,41.7,51.9,45.5,39.2,92,66,35,30.16,30.00,3,1,8,0.00
2013-6-6,60.8,56.9,52.7,58.4,54.4,49.2,98,91,71,30.01,29.80,2,0,7,0.60
2013-6-7,65.1,61.6,58.6,63.5,60.4,57.4,99,96,90,29.80,29.69,2,0,4,0.04
2013-6-8,69.1,60.7,57.0,62.2,58.7,56.6,100,94,75,30.02,29.69,2,1,5,0.11
2013-6-9,76.1,63.9,51.5,61.0,56.1,51.2,100,78,50,30.13,30.02,3,1,8,0.00
2013-6-10,68.4,63.5,57.2,64.3,60.4,54.9,96,90,76,30.08,29.68,3,1,7,0.16
2013-6-11,67.8,64.3,61.3,66.1,62.3,57.1,99,93,83,29.72,29.58,3,1,9,0.03
2013-6-12,75.6,63.8,56.3,59.1,56.3,54.6,95,78,50,29.85,29.72,3,1,7,0.03
2013-6-13,63.5,60.4,57.2,60.7,57.9,55.4,97,92,78,29.75,29.42,3,1,9,0.06
2013-6-14,72.5,62.4,56.2,62.0,57.3,55.1,98,85,60,29.88,29.66,4,1,9,0.06
2013-6-15,76.1,63.8,51.6,58.4,52.9,47.3,99,72,37,29.97,29.88,3,1,6,0.00
2013-6-16,76.2,65.5,56.1,67.6,58.8,51.1,93,79,65,29.91,29.64,4,1,13,0.00
2013-6-17,83.6,69.2,58.7,67.8,60.8,55.8,96,77,40,29.85,29.75,5,1,10,0.08
2013-6-18,69.2,61.8,56.6,62.0,56.1,47.9,98,83,51,29.94,29.81,4,1,7,0.08
2013-6-19,69.4,59.2,48.1,53.0,48.1,43.5,98,70,41,30.14,29.93,4,2,11,0.00
2013-6-20,81.0,63.0,45.3,58.1,50.0,42.7,92,66,39,30.19,30.10,3,1,8,0.00
2013-6-21,84.3,68.7,54.1,64.5,57.7,49.1,91,70,44,30.19,30.09,3,1,9,0.00
2013-6-22,76.5,66.8,63.6,64.7,61.8,61.0,92,84,64,30.11,30.07,4,1,9,0.00
2013-7-8,73.6,69.5,68.1,70.5,68.3,67.4,98,96,90,29.97,29.95,1,0,0,0.00
2013-7-10,70.3,67.2,66.5,68.0,65.6,62.5,99,95,79,29.85,29.73,1,0,0,0.39
2013-7-11,76.3,74.1,72.8,64.0,63.1,62.2,72,69,62,29.87,29.87,4,2,9,0.00
2013-7-12,79.9,71.0,65.1,69.4,64.5,62.3,97,81,55,30.15,30.01,3,1,0,0.01
2013-7-13,85.5,75.4,69.3,75.0,70.8,68.4,98,86,69,30.24,30.13,2,0,0,0.00
2013-7-14,89.6,79.2,72.4,77.8,73.8,71.4,98,85,61,30.21,30.14,2,0,0,0.00
2013-7-15,86.4,86.4,86.4,74.1,74.1,74.1,67,67,67,30.19,30.19,3,3,7,0.00
2013-7-16,90.9,81.2,71.6,72.8,70.9,68.4,93,73,49,30.15,30.11,3,1,7,0.00
2013-7-17,95.0,79.8,66.7,77.7,72.2,65.8,98,79,49,30.16,29.98,3,1,7,0.00
2013-7-18,92.2,78.8,72.1,77.5,73.9,71.2,98,86,59,30.01,29.88,3,0,6,0.03
2013-7-19,95.7,82.4,70.5,78.0,72.7,66.7,96,75,48,29.89,29.65,4,1,8,0.28
2013-7-20,80.9,72.4,64.9,71.9,69.0,63.4,99,90,68,29.81,29.64,4,0,7,0.02
2013-7-21,81.0,71.5,61.3,66.2,63.3,59.9,98,77,51,29.93,29.80,3,1,7,0.26
2013-7-22,82.8,69.7,61.9,74.7,66.9,61.6,100,92,69,29.93,29.72,2,1,4,0.69
2013-7-23,84.7,73.5,67.7,72.0,68.8,66.3,100,86,59,29.72,29.52,3,0,6,1.31
2013-7-24,70.3,63.9,53.0,68.1,56.5,51.2,95,77,65,29.97,29.57,4,2,14,0.00
2013-7-25,76.1,62.9,50.2,57.6,53.4,49.2,99,74,42,30.05,29.97,3,1,14,0.00
2013-7-26,79.5,65.0,51.4,61.9,56.4,50.6,99,77,43,30.04,29.94,3,1,6,0.00
2013-7-27,81.7,69.9,57.0,71.8,63.8,55.9,97,82,60,29.96,29.79,4,1,10,0.42
2013-7-28,79.6,68.7,60.5,68.8,65.6,59.9,98,91,65,29.92,29.77,3,1,6,0.06
2013-7-29,74.8,64.5,56.5,62.7,58.8,53.2,100,84,49,30.07,29.92,3,1,7,0.07
2013-7-30,76.0,65.7,56.1,64.8,59.7,55.0,97,82,57,30.14,30.06,3,1,11,0.00
2013-7-31,81.0,67.7,55.7,66.3,60.4,55.1,99,80,49,30.09,29.89,3,1,6,0.00
2013-8-1,80.0,69.3,62.1,69.7,64.8,60.9,96,86,68,29.89,29.69,3,1,6,0.00
2013-8-2,75.6,65.8,58.3,65.9,62.2,57.7,99,89,65,29.84,29.77,3,0,6,0.19
2013-8-3,77.9,68.9,60.3,64.9,59.4,55.1,97,74,47,29.84,29.74,3,1,5,0.19
2013-8-4,72.0,64.7,57.5,65.2,56.7,52.2,90,76,58,29.96,29.83,4,1,9,0.03
2013-8-5,74.9,62.8,51.8,58.6,54.2,50.8,97,76,44,30.04,29.96,3,1,6,0.00
2013-8-6,77.5,65.6,52.7,64.3,58.0,51.6,97,78,51,30.00,29.95,4,1,6,0.00
2013-8-7,76.5,69.2,62.2,68.4,64.4,59.3,93,85,75,29.99,29.87,4,1,10,0.00
2013-8-8,85.4,72.6,65.6,75.1,69.0,64.2,99,89,67,29.92,29.81,5,1,10,2.34
2013-8-9,77.7,71.0,63.6,74.1,69.7,62.4,100,96,83,29.86,29.75,3,0,6,0.01
2013-8-10,75.5,66.9,56.1,63.8,58.7,53.6,98,77,53,30.03,29.85,4,2,7,0.02
2013-8-11,76.6,64.5,54.5,63.0,57.4,53.4,97,80,52,30.05,29.97,3,1,7,0.00
2013-8-12,78.9,65.5,56.2,69.0,61.2,55.4,98,87,56,29.99,29.81,2,0,7,0.00
2013-8-13,75.2,67.0,56.8,69.1,62.9,50.8,99,87,70,29.81,29.65,4,1,8,1.07
2013-8-14,67.6,59.6,52.9,56.8,52.1,48.4,89,77,59,30.01,29.76,4,1,11,0.00
2013-8-15,74.4,60.7,49.3,61.7,54.0,48.2,96,80,53,30.09,30.00,3,1,4,0.00
2013-8-16,77.1,63.4,53.1,59.6,54.6,49.9,95,76,43,30.15,30.06,3,1,5,0.00
2013-8-17,80.2,64.7,51.1,63.6,57.0,50.0,97,79,46,30.24,30.15,3,1,8,0.00
2013-8-18,78.9,66.3,58.2,67.2,60.7,55.8,93,83,62,30.19,30.05,2,0,8,0.00
2013-8-19,81.2,68.6,59.9,68.6,62.4,58.5,96,82,56,30.06,29.94,3,0,3,0.00
2013-8-20,83.8,69.1,57.9,67.4,62.4,57.3,99,82,50,30.07,29.99,3,1,5,0.00
2013-8-21,85.0,70.7,59.5,69.2,63.2,58.4,97,79,49,30.11,29.95,2,1,5,0.00
2013-8-22,87.1,72.1,61.8,73.2,67.1,60.7,99,86,56,29.97,29.78,6,0,9,0.46
2013-8-23,75.1,66.6,57.3,67.6,60.6,55.8,100,83,59,30.13,29.88,4,1,8,0.47
2013-8-24,76.3,62.7,52.4,61.0,56.1,50.9,99,82,49,30.28,30.13,3,1,5,0.00
2013-8-25,82.7,67.2,53.4,65.8,58.6,52.8,98,77,44,30.31,30.08,4,1,8,0.01
2013-8-26,80.3,69.2,63.7,72.2,66.5,60.7,99,91,69,30.13,29.83,3,0,5,0.70
2013-8-27,84.8,73.3,68.0,74.7,70.2,67.6,100,91,66,29.87,29.78,4,0,4,0.73
2013-8-28,84.5,72.9,67.5,75.7,70.4,67.2,100,93,69,29.84,29.75,3,0,4,0.01
2013-8-29,83.3,72.3,65.1,73.7,69.2,64.5,100,91,65,29.96,29.84,3,0,5,0.01
2013-8-30,75.8,65.0,62.2,69.3,64.0,61.9,100,97,80,29.95,29.88,3,1,8,0.00
2013-8-31,83.7,74.2,68.6,74.6,70.0,67.4,98,87,69,29.77,29.66,2,1,0,0.00
2013-9-1,85.1,73.6,67.4,76.3,70.5,67.1,100,91,68,29.71,29.57,2,0,0,2.41
2013-9-2,77.7,67.2,59.0,76.5,64.3,57.5,97,91,79,29.76,29.57,2,0,0,0.01
2013-9-3,70.1,65.9,61.5,61.8,59.9,58.0,93,81,67,29.86,29.76,2,1,9,0.01
2013-9-4,80.4,67.1,55.0,65.0,58.4,53.9,97,76,46,29.93,29.85,3,1,13,0.00
2013-9-5,69.0,61.7,48.8,61.2,52.3,44.4,94,72,52,30.15,29.87,4,1,15,0.02
2013-9-6,70.3,55.3,43.5,52.9,47.2,42.2,96,77,45,30.24,30.06,3,1,8,0.00
2013-9-7,70.1,60.7,50.3,62.1,55.6,48.2,95,84,64,30.06,29.82,3,0,9,0.00
2013-9-8,66.3,61.2,48.2,63.5,53.7,44.3,99,78,51,30.07,29.77,4,1,14,0.05
2013-9-9,75.1,59.4,44.1,59.9,51.5,43.0,97,77,52,30.14,29.96,4,1,12,0.00
2013-9-10,90.2,74.2,65.5,78.7,68.8,58.3,97,84,64,29.98,29.88,4,1,16,0.09
2013-9-11,94.0,77.7,70.2,79.8,72.9,68.7,98,86,54,29.99,29.84,4,1,14,0.30
2013-9-12,79.4,69.3,62.0,73.9,67.9,61.4,99,95,77,29.85,29.65,2,0,9,0.08
2013-9-13,62.0,57.4,51.2,61.2,55.6,49.8,98,94,82,29.91,29.64,3,2,15,0.06
2013-9-14,61.0,51.6,44.2,50.1,47.5,43.4,98,86,61,30.09,29.90,3,1,12,0.08
2013-9-15,69.9,54.5,42.5,56.3,49.3,41.8,98,84,52,30.14,30.00,4,1,9,0.01
2013-9-16,60.3,53.7,42.7,56.9,50.7,41.6,99,90,75,30.31,30.02,3,1,13,0.05
2013-9-17,66.6,49.3,37.1,49.9,43.3,36.6,99,82,48,30.44,30.27,3,1,7,0.00
2013-9-18,74.1,55.7,42.6,53.2,47.9,41.9,98,78,45,30.27,30.07,4,1,11,0.01
2013-9-19,78.1,60.2,46.9,57.6,51.9,45.3,95,77,43,30.10,29.97,4,1,10,0.00
2013-9-20,79.8,64.9,52.8,65.0,58.0,52.1,99,80,55,29.99,29.79,4,1,11,0.00
2013-9-21,70.2,63.4,58.1,64.0,59.9,57.5,99,89,79,29.80,29.55,5,2,17,0.74
2013-9-22,58.5,52.8,49.3,58.2,50.6,48.4,99,92,75,29.81,29.62,4,1,11,0.75
2013-10-11,63.8,58.9,48.6,54.7,50.9,46.9,94,75,59,30.08,30.03,3,1,5,0.01
2013-10-12,77.0,56.8,41.9,52.3,45.9,40.4,99,72,29,30.19,30.07,3,1,5,0.01
2013-10-13,70.0,61.7,53.8,55.5,53.4,51.3,93,75,57,30.26,30.18,5,1,9,0.00
2013-10-14,62.3,56.5,53.6,56.3,53.9,50.7,98,91,66,30.27,30.21,2,0,4,0.25
2013-10-15,71.2,59.5,54.5,60.1,55.6,52.4,99,88,63,30.23,29.95,3,0,3,0.00
2013-10-16,62.4,59.6,57.2,56.6,51.7,44.9,92,76,62,29.96,29.75,5,1,10,0.01
2013-10-17,65.2,57.5,48.3,57.4,52.2,47.5,98,84,56,29.83,29.58,5,1,6,0.92
2013-10-18,61.0,52.6,43.9,52.7,46.2,41.1,99,80,52,29.88,29.64,4,1,9,0.00
2013-10-19,62.7,51.9,43.7,49.8,45.4,41.3,96,80,53,29.87,29.61,4,1,9,0.07
2013-10-20,54.1,47.6,39.9,44.9,41.3,37.7,95,79,60,29.96,29.71,3,1,10,0.00
2013-10-21,67.6,54.7,42.5,44.7,40.7,37.6,95,62,35,29.99,29.77,5,2,8,0.00
2013-10-22,55.7,49.3,38.7,46.7,39.3,31.8,90,70,45,29.79,29.68,5,1,13,0.01
2013-10-23,48.8,42.5,37.8,39.8,36.2,33.9,89,79,60,29.78,29.60,4,1,10,0.00
2013-10-24,50.3,42.2,34.5,35.7,32.6,28.4,90,70,46,29.94,29.74,6,2,11,0.00
2013-10-25,49.5,42.3,36.8,39.8,36.2,33.2,96,80,62,30.13,29.94,5,1,9,0.05
2013-10-26,48.5,43.7,40.4,37.1,31.5,26.5,84,63,43,30.10,29.77,5,2,11,0.01
2013-10-27,50.4,44.2,37.3,37.5,34.8,31.5,84,70,52,30.03,29.77,4,1,11,0.00
2013-10-28,52.5,43.5,34.6,41.9,34.9,30.4,86,72,59,30.33,30.02,4,1,7,0.00
2013-10-29,47.0,37.9,28.2,33.1,30.3,26.4,93,75,50,30.42,30.26,3,1,5,0.00
2013-10-30,58.4,44.9,38.2,44.9,37.8,32.3,92,77,52,30.26,30.08,3,1,6,0.00
2013-10-31,61.4,54.1,38.9,58.1,51.7,36.9,98,92,84,30.09,29.47,4,2,9,0.29
2013-11-1,69.5,60.9,51.6,60.2,50.2,40.5,94,70,36,29.61,29.22,7,2,12,0.28
2013-11-2,56.9,48.3,39.7,48.2,43.8,36.0,96,85,60,29.87,29.56,3,1,9,0.11
2013-11-3,39.7,35.0,26.3,36.4,28.2,22.2,88,76,59,30.49,29.87,3,2,8,0.01
2013-11-4,44.3,33.4,22.1,25.9,21.7,17.8,92,65,36,30.63,30.47,3,1,5,0.00
2013-11-5,54.4,44.6,34.0,39.3,30.8,20.5,74,59,48,30.51,30.33,6,1,8,0.00
2013-11-6,60.1,53.9,44.7,50.5,45.7,38.8,88,74,62,30.34,29.80,5,2,14,0.00
2013-11-7,59.1,46.8,37.8,52.9,40.5,31.3,97,79,65,29.92,29.73,4,1,8,0.38
2013-11-8,43.9,37.7,32.3,34.6,29.9,26.4,89,74,56,30.17,29.90,4,2,13,0.00
2013-11-9,47.7,41.8,33.3,33.1,29.7,24.7,81,63,46,30.19,29.78,4,1,9,0.00
2013-11-10,48.5,45.1,41.2,41.6,35.2,28.9,88,69,56,30.06,29.74,6,2,21,0.04
2013-11-11,46.7,40.3,32.0,37.9,31.8,27.2,92,72,52,30.11,29.89,5,1,11,0.04
2013-11-12,33.3,29.9,27.1,29.4,23.1,19.4,93,76,60,30.31,30.01,4,3,13,0.00
2013-11-13,38.6,29.3,21.9,23.6,20.3,15.9,88,70,49,30.40,30.11,4,2,10,0.00
2013-11-14,53.2,38.4,26.1,23.5,18.8,15.0,69,47,23,30.13,30.01,3,2,10,0.00
2013-11-15,59.3,44.4,34.7,28.5,23.1,19.3,60,44,23,30.11,30.01,3,1,7,0.00
2013-11-16,60.7,48.4,37.0,41.2,35.7,25.5,82,62,41,30.22,30.07,4,1,7,0.00
2013-11-17,59.2,54.9,48.8,55.9,50.5,41.0,93,85,74,30.07,29.40,6,3,14,0.15
2013-11-18,59.0,50.2,37.5,56.7,38.2,26.0,93,65,40,29.83,29.36,7,3,11,0.14
2013-11-19,38.0,35.9,33.1,31.9,27.5,23.9,85,72,61,30.38,29.82,6,3,17,0.01
2013-11-20,40.4,30.7,22.6,25.7,20.1,13.5,89,66,36,30.57,30.37,3,1,5,0.00
2013-11-21,46.5,37.9,29.2,37.6,25.6,12.9,90,62,47,30.50,30.26,4,1,9,0.02
2013-11-22,47.8,43.6,36.5,46.7,41.7,30.6,98,93,76,30.26,29.91,6,1,8,0.25
2013-11-23,40.5,30.6,19.6,30.2,23.0,10.5,91,74,51,30.10,29.90,7,3,15,0.00
2013-11-24,25.5,19.7,16.5,16.2,12.7,9.7,87,74,55,30.36,30.07,7,3,17,0.00
2013-11-25,35.0,27.1,18.7,20.4,14.6,12.1,78,61,43,30.39,30.14,5,2,11,0.00
2013-11-26,35.2,32.2,29.1,34.7,28.5,13.3,98,87,46,30.17,29.72,3,1,7,0.47
2013-11-27,35.7,32.4,25.3,35.4,29.6,18.5,99,90,74,29.79,29.51,5,3,14,0.92
2013-11-28,28.6,24.8,20.8,22.8,17.0,13.4,92,73,54,30.39,29.79,7,2,16,0.00
2013-11-29,31.2,22.8,10.8,23.4,17.8,8.4,94,82,54,30.72,30.39,3,1,6,0.00
2013-11-30,33.7,23.5,9.8,22.5,14.8,7.5,93,72,43,30.72,30.23,5,2,10,0.00
2013-12-1,41.1,33.8,29.6,33.0,27.2,22.3,96,77,62,30.23,29.94,4,1,6,0.05
2013-12-2,40.5,36.7,33.9,35.6,33.8,32.4,96,89,81,29.94,29.81,3,0,6,0.00
2013-12-3,40.7,34.4,26.3,34.2,31.1,25.0,97,88,73,29.97,29.83,3,1,3,0.00
2013-12-4,49.4,39.7,28.8,43.0,36.9,27.5,97,90,73,30.02,29.92,4,1,8,0.01
2013-12-5,56.1,51.3,43.3,52.0,47.8,42.1,97,88,79,29.94,29.75,4,2,8,0.08
2013-12-6,43.3,36.0,29.9,42.5,32.6,27.1,97,88,73,30.19,29.90,2,1,7,0.41
2013-12-7,34.4,29.3,23.9,28.4,20.6,13.8,94,70,52,30.50,30.16,4,2,8,0.00
2013-12-8,28.8,25.3,20.3,24.1,17.0,13.9,90,71,60,30.55,30.23,4,1,10,0.00
2013-12-9,41.2,34.8,26.5,36.8,30.3,23.3,93,84,68,30.23,29.84,6,2,10,0.02
2013-12-10,33.2,27.0,16.6,26.6,20.9,12.9,90,78,64,30.03,29.85,4,1,10,0.00
2013-12-11,30.1,24.0,17.4,22.8,18.2,9.8,92,79,59,30.21,30.02,3,1,6,0.00
2013-12-12,22.6,17.9,10.4,11.0,8.4,5.7,84,66,50,30.29,30.02,5,2,11,0.00
2013-12-13,29.3,21.8,17.3,21.3,16.0,11.0,90,78,63,30.33,29.99,4,1,8,0.00
2013-12-14,23.0,19.4,15.1,21.2,16.2,9.8,95,87,72,30.40,29.75,6,2,14,0.00
2013-12-15,30.4,26.5,22.0,26.7,22.8,14.3,95,86,69,29.79,29.55,5,1,9,0.00
2013-12-16,25.3,17.0,5.0,14.7,10.2,2.2,91,75,54,30.16,29.79,4,2,11,0.00
2013-12-17,26.9,18.1,3.5,22.4,15.2,1.0,93,88,81,30.15,29.90,4,1,12,0.00
2013-12-18,33.1,27.7,20.4,27.9,23.5,18.2,93,84,70,30.05,29.90,3,0,6,0.00
2013-12-19,45.4,34.1,26.9,30.9,25.5,20.3,87,72,49,30.03,29.91,4,1,8,0.09
2013-12-20,45.9,42.2,35.5,45.2,37.5,30.7,98,84,65,29.97,29.77,2,0,3,0.04
2013-12-21,55.0,47.5,36.4,52.2,46.0,35.6,98,95,86,29.80,29.70,4,1,6,0.41
2013-12-22,65.7,45.4,34.2,58.5,42.2,33.4,100,89,62,29.91,29.50,5,1,11,0.05
2013-12-23,43.9,38.6,30.0,41.7,34.7,21.9,97,86,64,30.18,29.90,3,1,6,0.05
2013-12-24,30.2,23.8,13.8,24.9,18.7,8.7,94,81,68,30.41,30.11,4,1,10,0.00
2013-12-25,24.6,17.5,9.9,14.8,10.3,6.3,86,74,61,30.51,30.23,4,2,8,0.00
2013-12-26,36.4,28.1,22.9,28.4,22.4,14.5,93,79,65,30.23,30.04,3,1,10,0.01
2013-12-27,34.8,28.6,22.8,27.5,23.0,17.0,90,79,70,30.24,30.11,2,1,5,0.00
2013-12-28,48.3,37.8,27.8,33.6,29.6,24.6,90,73,52,30.12,29.92,4,1,7,0.04
2013-12-29,42.9,37.1,32.9,38.3,32.9,29.8,98,85,61,29.93,29.59,2,0,4,0.48
2013-12-30,38.1,23.2,16.4,35.5,18.3,9.3,96,81,71,30.17,29.66,5,2,9,0.02
2013-12-31,28.4,19.8,15.6,21.2,13.0,9.1,90,75,59,30.22,29.93,5,2,9,0.00
2014-1-1,23.1,19.4,15.3,16.1,12.2,7.3,90,74,56,30.36,30.21,3,1,5,0.00
2014-1-2,18.1,14.1,3.6,15.4,11.3,0.8,91,88,84,30.23,29.86,1,0,4,0.00